Timestamp[UTC];2m Lufttemperatur [degC] (tas);Stations-Luftdruck [Pa] (ps);relative Luftfeuchtigkeit [%] (hurs);spezifische Luftfeuchtigkeit [kg/kg] (huss);Niederschlagsmenge [mm] (pr);Windgeschwindigkeit in 2m [m/s] (sfcWind);Windrichtung [deg];maximale Windgeschwindigkeit [m/s] (wsgsmax);u-Windkomponente [m/s] (uas);v-Windkomponente [m/s] (vas);Sonneneinstrahlung [W/m2];Blitzrate [n];Blitzentfernung [km];Bodenfeuchte in 5cm Tiefe [vol%];Bodenfeuchte in 15cm Tiefe [vol%];Bodenfeuchte in 30cm Tiefe [vol%];Bodenfeuchte in 60cm Tiefe [vol%];Bodentemperatur in 5cm Tiefe [degC];Bodentemperatur in 15cm Tiefe [degC];Bodentemperatur in 30cm Tiefe [degC];Bodentemperatur in 60cm Tiefe [degC];Matrixpotential in 30cm Tiefe [kPa];Bodenfeuchte aus CRNS [vol%] (mrso);Neutronen Anzahl [N/h]
2021-06-01 00:00:00;10,6;101302;84;0,0066;0,0;0,4;314;0,9;0,27;-0,32;0;0;0;18,4;21,6;27,1;29,3;15,5;16,9;16,4;14,0;-104,8;19,2;1602
2021-06-01 01:00:00;10,0;101298;83;0,0063;0,0;0,5;314;0,9;0,32;-0,34;0;0;0;18,3;21,6;27,1;29,3;15,0;16,5;16,4;14,1;-104,0;19,2;1590
2021-06-01 02:00:00;9,3;101290;84;0,006;0,0;0,4;322;0,8;0,27;-0,26;0;0;0;18,3;21,5;27,1;29,3;14,4;16,2;16,2;14,1;-103,3;19,3;1644
2021-06-01 03:00:00;8,5;101280;88;0,006;0,0;0,4;115;0,9;0,31;-0,03;7;0;0;18,3;21,5;27,1;29,3;13,9;15,8;16,1;14,2;-103,0;19,1;1588
2021-06-01 04:00:00;9,9;101275;85;0,0064;0,0;0,4;161;0,8;0,28;-0,12;89;0;0;18,2;21,5;27,1;29,3;13,6;15,4;16,0;14,2;-102,6;18,9;1599
2021-06-01 05:00:00;13,1;101245;78;0,0072;0,0;0,9;74;1,8;0,24;0,87;216;0;0;18,2;21,5;27,1;29,3;13,8;15,1;15,8;14,2;-102,2;18,7;1671
2021-06-01 06:00:00;15,4;101230;69;0,0074;0,0;1,4;70;2,6;0,46;1,28;354;0;0;18,2;21,5;27,1;29,3;14,6;15,0;15,7;14,3;-103,0;18,6;1523
2021-06-01 07:00:00;17,7;101190;58;0,0073;0,0;1,7;72;3,3;0,52;1,61;494;0;0;18,2;21,5;27,1;29,3;15,7;15,1;15,6;14,3;-105,5;18,3;1544
2021-06-01 08:00:00;20,1;101138;49;0,0071;0,0;2,1;79;4,5;0,38;2,06;636;0;0;18,1;21,4;27,0;29,2;17,3;15,4;15,5;14,3;-109,4;18,4;1609
2021-06-01 09:00:00;22,0;101082;41;0,0067;0,0;2,9;86;6,3;0,22;2,91;742;0;0;18,0;21,4;27,0;29,2;19,1;16,0;15,4;14,3;-113,2;18,2;1619
2021-06-01 10:00:00;23,1;101033;36;0,0062;0,0;4,8;78;8,2;0,95;4,66;810;0;0;17,9;21,3;26,9;29,2;20,7;16,7;15,4;14,3;-117,6;18,2;1629
2021-06-01 11:00:00;23,8;100992;33;0,006;0,0;4,7;80;8,3;0,77;4,6;835;0;0;17,8;21,3;26,8;29,2;21,6;17,4;15,5;14,3;-122,2;18,2;1599
2021-06-01 12:00:00;24,4;100923;32;0,0061;0,0;4,3;78;7,4;0,89;4,21;807;0;0;17,6;21,2;26,8;29,2;22,1;18,1;15,6;14,3;-126,2;18,2;1592
2021-06-01 13:00:00;24,9;100863;33;0,0064;0,0;4,3;78;7,5;0,93;4,17;744;0;0;17,5;21,2;26,7;29,2;22,3;18,6;15,8;14,3;-129,9;18,2;1649
2021-06-01 14:00:00;25,2;100830;32;0,0065;0,0;3,8;82;7,0;0,55;3,79;651;0;0;17,4;21,1;26,6;29,2;22,3;19,1;16,0;14,3;-133,8;18,2;1618
2021-06-01 15:00:00;25,4;100795;31;0,0063;0,0;3,3;88;6,0;0,11;3,26;515;0;0;17,2;21,1;26,5;29,1;22,0;19,3;16,2;14,3;-137,2;18,2;1666
2021-06-01 16:00:00;25,1;100750;32;0,0063;0,0;2,8;83;5,2;0,35;2,73;361;0;0;17,1;21,0;26,5;29,1;21,5;19,4;16,4;14,3;-140,4;18,1;1664
2021-06-01 17:00:00;24,8;100723;33;0,0064;0,0;2,4;90;4,4;0,02;2,38;224;0;0;16,9;21,0;26,4;29,1;20,7;19,3;16,6;14,3;-142,5;18,1;1662
2021-06-01 18:00:00;23,6;100738;36;0,0064;0,0;1,7;84;3,4;0,14;1,73;102;0;0;16,9;20,9;26,4;29,1;20,0;19,2;16,7;14,4;-143,0;18,1;1694
2021-06-01 19:00:00;20,5;100752;44;0,0065;0,0;0,8;56;1,8;0,43;0,64;9;0;0;16,8;20,9;26,4;29,1;19,2;19,0;16,8;14,4;-142,1;18,1;1678
2021-06-01 20:00:00;17,6;100800;54;0,0068;0,0;0,3;216;0,7;0,23;-0,08;0;0;0;16,7;20,9;26,4;29,1;18,3;18,7;16,9;14,4;-139,9;18,0;1760
2021-06-01 21:00:00;15,0;100822;66;0,007;0,0;0,4;164;1,1;0,24;-0,04;0;0;0;16,7;20,9;26,4;29,1;17,5;18,3;16,9;14,5;-138,7;18,0;1725
2021-06-01 22:00:00;14,2;100855;69;0,0069;0,0;0,5;257;1,2;0,46;-0,1;0;0;0;16,7;20,9;26,4;29,1;16,8;17,9;16,9;14,5;-137,6;18,0;1681
2021-06-01 23:00:00;12,4;100870;77;0,0069;0,0;0,2;221;0,5;0,18;-0,05;0;0;0;16,6;20,9;26,4;29,1;16,2;17,5;16,9;14,6;-135,8;18,0;1638
2021-06-02 00:00:00;11,5;100880;80;0,0067;0,0;0,4;238;0,8;0,25;-0,17;0;0;0;16,6;20,9;26,4;29,0;15,7;17,1;16,8;14,6;-135,0;18,0;1656
2021-06-02 01:00:00;10,8;100858;84;0,0067;0,0;0,4;253;0,8;0,32;-0,13;0;0;0;16,6;20,9;26,4;29,0;15,2;16,7;16,7;14,6;-134,0;18,0;1690
2021-06-02 02:00:00;9,9;100860;86;0,0065;0,0;0,3;336;0,5;0,25;-0,11;0;0;0;16,6;20,8;26,4;29,0;14,7;16,4;16,6;14,7;-132,9;17,8;1674
2021-06-02 03:00:00;9,0;100878;90;0,0064;0,0;0,3;178;0,6;0,23;-0,02;2;0;0;16,6;20,8;26,4;29,0;14,3;16,1;16,5;14,7;-132,0;17,8;1677
2021-06-02 04:00:00;10,2;100875;88;0,0068;0,0;0,4;111;0,9;0,39;0,14;70;0;0;16,5;20,8;26,4;29,0;14,0;15,7;16,4;14,8;-131,0;17,7;1677
2021-06-02 05:00:00;13,6;100860;81;0,0078;0,0;0,7;80;1,3;0,14;0,71;204;0;0;16,5;20,8;26,4;29,0;14,3;15,5;16,2;14,8;-130,2;17,8;1656
2021-06-02 06:00:00;16,3;100847;72;0,0083;0,0;0,9;71;2,0;0,26;0,81;340;0;0;16,5;20,8;26,4;29,0;15,0;15,4;16,1;14,8;-132,4;17,7;1613
2021-06-02 07:00:00;19,2;100815;61;0,0084;0,0;1,5;75;3,0;0,36;1,42;478;0;0;16,5;20,8;26,4;29,0;16,2;15,6;16,0;14,8;-137,8;17,7;1641
2021-06-02 08:00:00;22,2;100798;50;0,0084;0,0;1,8;86;3,8;0,07;1,82;621;0;0;16,4;20,7;26,3;29,0;18,0;15,9;15,9;14,8;-144,3;17,8;1632
2021-06-02 09:00:00;24,4;100800;38;0,0072;0,0;3,2;94;5,8;-0,25;3,21;722;0;0;16,4;20,7;26,2;29,0;19,6;16,5;15,9;14,8;-151,4;17,9;1620
2021-06-02 10:00:00;25,3;100788;34;0,0068;0,0;3,9;100;7,4;-0,7;3,79;794;0;0;16,3;20,6;26,2;29,0;21,3;17,2;15,9;14,8;-158,0;18,1;1652
2021-06-02 11:00:00;25,9;100780;33;0,0069;0,0;3,4;116;6,6;-1,45;2,99;826;0;0;16,2;20,5;26,0;28,9;22,5;18,0;16,0;14,8;-163,6;18,0;1664
2021-06-02 12:00:00;26,8;100760;32;0,0069;0,0;3,1;108;5,8;-0,95;2,9;797;0;0;16,0;20,5;25,9;28,9;23,3;18,8;16,1;14,8;-169,6;18,0;1618
2021-06-02 13:00:00;27,6;100753;29;0,0067;0,0;3,4;86;6,7;0,25;3,38;733;0;0;15,9;20,4;25,8;28,9;23,6;19,5;16,3;14,8;-174,7;18,0;1728
2021-06-02 14:00:00;27,9;100730;29;0,0067;0,0;3,1;90;6,2;-0,01;3,11;632;0;0;15,7;20,3;25,7;28,9;23,5;20,0;16,5;14,8;-180,8;18,1;1646
2021-06-02 15:00:00;28,1;100708;30;0,0069;0,0;3,0;93;5,7;-0,16;2,99;506;0;0;15,6;20,2;25,6;28,9;23,2;20,2;16,8;14,8;-185,6;18,1;1699
2021-06-02 16:00:00;27,8;100693;31;0,0072;0,0;2,8;104;5,1;-0,67;2,66;365;0;0;15,4;20,1;25,5;28,8;22,7;20,3;17,0;14,8;-190,7;18,1;1654
2021-06-02 17:00:00;26,7;100710;34;0,0073;0,0;2,9;89;5,3;0,03;2,87;167;0;0;15,3;20,1;25,4;28,8;21,9;20,3;17,2;14,8;-194,1;18,2;1683
2021-06-02 18:00:00;25,0;100760;38;0,0075;0,0;1,9;84;3,5;0,18;1,9;48;0;0;15,3;20,0;25,4;28,8;21,1;20,1;17,4;14,9;-195,7;18,2;1673
2021-06-02 19:00:00;23,6;100827;42;0,0076;0,0;1,4;100;2,4;-0,01;1,19;9;0;0;15,2;20,0;25,4;28,8;20,5;19,9;17,5;14,9;-193,6;18,2;1615
2021-06-02 20:00:00;22,0;100925;48;0,0077;0,0;0,6;128;1,3;-0,24;0,29;0;0;0;15,2;20,0;25,4;28,8;19,9;19,6;17,6;14,9;-191,8;18,3;1665
2021-06-02 21:00:00;21,6;101002;53;0,0085;0,0;1,0;233;2,8;-0,38;-0,78;0;0;0;15,1;20,0;25,4;28,8;19,5;19,4;17,6;15,0;-190,7;18,2;1567
2021-06-02 22:00:00;20,3;101078;57;0,0085;0,0;0,9;181;2,4;-0,34;-0,09;0;0;0;15,1;20,0;25,4;28,8;19,1;19,2;17,6;15,0;-190,2;18,4;1662
2021-06-02 23:00:00;20,3;101107;58;0,0085;0,0;1,4;259;3,0;-0,19;-1,39;0;0;0;15,0;19,9;25,4;28,8;18,7;18,9;17,6;15,1;-188,5;18,4;1625
2021-06-03 00:00:00;19,0;101095;64;0,0087;0,0;0,6;103;1,6;0,39;0,17;0;0;0;15,0;19,9;25,4;28,7;18,4;18,7;17,6;15,1;-188,1;18,5;1584
2021-06-03 01:00:00;17,8;101112;71;0,0089;0,0;0,9;112;2,3;0,74;0,44;0;0;0;15,0;19,9;25,4;28,7;18,0;18,5;17,6;15,2;-186,4;18,6;1591
2021-06-03 02:00:00;16,4;101143;77;0,0089;0,0;0,4;149;0,8;0,25;0,21;0;0;0;15,0;19,9;25,4;28,7;17,6;18,3;17,5;15,2;-185,2;18,8;1576
2021-06-03 03:00:00;15,6;101182;80;0,0088;0,0;0,3;185;0,6;0,22;-0,01;1;0;0;14,9;19,9;25,4;28,7;17,3;18,0;17,5;15,2;-184,1;19,0;1595
2021-06-03 04:00:00;15,8;101218;82;0,0091;0,0;0,3;106;0,7;0,2;0,05;48;0;0;14,9;19,9;25,4;28,7;17,0;17,8;17,4;15,3;-182,9;19,4;1559
2021-06-03 05:00:00;17,3;101250;80;0,0098;0,0;0,8;65;1,4;0,33;0,68;76;0;0;14,9;19,9;25,4;28,7;17,3;17,6;17,3;15,3;-182,5;19,5;1591
2021-06-03 06:00:00;18,8;101293;77;0,0103;0,0;1,0;87;1,7;0,05;0,9;178;0;0;14,9;19,8;25,4;28,7;17,7;17,6;17,3;15,4;-184,0;19,6;1562
2021-06-03 07:00:00;20,3;101328;73;0,0108;0,0;1,0;88;1,7;0,02;0,96;231;0;0;14,9;19,8;25,4;28,7;18,5;17,6;17,2;15,4;-187,6;20,0;1505
2021-06-03 08:00:00;21,4;101322;75;0,0118;0,63;0,7;232;1,4;0,39;-0,4;316;0;0;14,9;19,8;25,4;28,7;19,5;17,9;17,1;15,4;-190,8;20,0;1555
2021-06-03 09:00:00;19,4;101400;86;0,0119;6,85;1,1;200;2,5;0,69;-0,66;68;1;5;15,2;19,9;25,4;28,7;19,6;18,2;17,1;15,4;-190,4;20,2;1421
2021-06-03 10:00:00;18,5;101430;94;0,0123;0,48;0,8;195;2,1;0,52;0,03;144;13;12;16,5;20,0;25,4;28,7;19,4;18,4;17,2;15,4;-187,2;20,3;1497
2021-06-03 11:00:00;20,0;101450;90;0,013;0,0;1,5;89;2,8;0,06;1,43;202;2;7;17,1;20,0;25,4;28,7;19,7;18,4;17,2;15,5;-185,1;20,6;1486
2021-06-03 12:00:00;21,3;101358;87;0,0136;0,0;0,9;80;2,0;0,15;0,84;503;0;0;17,4;20,0;25,4;28,7;20,5;18,6;17,2;15,5;-185,0;20,6;1420
2021-06-03 13:00:00;22,9;101297;75;0,0129;0,0;1,3;75;2,5;0,33;1,24;359;0;0;17,6;20,0;25,4;28,7;21,8;19,0;17,3;15,5;-188,2;20,7;1493
2021-06-03 14:00:00;22,5;101295;76;0,0127;0,14;1,4;54;2,6;0,81;1,12;195;4;3;17,8;20,0;25,4;28,7;21,6;19,4;17,3;15,5;-188,5;20,9;1392
2021-06-03 15:00:00;20,1;101337;86;0,0125;1,29;1,4;192;3,6;-0,34;-0,18;128;62;6;17,9;20,0;25,4;28,6;21,2;19,6;17,4;15,5;-185,7;21,0;1386
2021-06-03 16:00:00;20,7;101335;86;0,0129;0,0;1,0;146;2,2;-0,19;0,74;128;7;7;18,3;20,0;25,4;28,6;21,1;19,6;17,5;15,5;-184,0;21,1;1447
2021-06-03 17:00:00;20,9;101337;87;0,0133;0,0;0,7;55;1,5;0,3;0,63;65;0;0;18,5;20,0;25,4;28,6;20,8;19,6;17,6;15,5;-181,8;21,2;1483
2021-06-03 18:00:00;20,3;101342;89;0,0131;0,05;0,7;74;1,6;0,22;0,66;37;0;0;18,6;20,0;25,4;28,6;20,5;19,6;17,7;15,5;-180,3;21,4;1381
2021-06-03 19:00:00;19,6;101385;91;0,0129;0,0;0,4;42;1,0;0,29;0,3;12;0;0;18,7;20,0;25,4;28,6;20,1;19,5;17,8;15,6;-179,6;21,6;1476
2021-06-03 20:00:00;19,1;101417;93;0,0127;0,0;0,6;48;1,2;0,37;0,41;0;0;0;18,8;20,0;25,4;28,6;19,8;19,4;17,8;15,6;-179,4;21,5;1439
2021-06-03 21:00:00;18,8;101440;94;0,0126;0,0;0,3;107;0,7;0,32;0,11;0;0;0;18,9;20,0;25,4;28,6;19,5;19,2;17,8;15,6;-178,3;21,8;1420
2021-06-03 22:00:00;18,4;101462;96;0,0125;0,02;0,5;94;0,9;0,42;0,08;0;0;0;19,0;20,0;25,4;28,6;19,2;19,0;17,8;15,6;-177,2;21,7;1431
2021-06-03 23:00:00;18,2;101458;96;0,0124;0,0;0,4;311;0,7;0,22;-0,25;0;0;0;19,1;20,0;25,4;28,6;19,0;18,9;17,8;15,7;-176,6;21,8;1529
2021-06-04 00:00:00;17,8;101450;97;0,0122;0,02;0,5;108;0,9;0,42;-0,09;0;0;0;19,1;19,9;25,4;28,6;18,8;18,8;17,8;15,7;-175,7;21,7;1440
2021-06-04 01:00:00;17,1;101425;97;0,0117;0,0;0,3;253;0,6;0,24;-0,1;0;0;0;19,2;19,9;25,4;28,6;18,5;18,6;17,8;15,7;-174,5;21,8;1429
2021-06-04 02:00:00;16,5;101438;97;0,0112;0,02;0,4;235;0,9;0,28;-0,24;0;0;0;19,2;19,9;25,4;28,6;18,2;18,5;17,7;15,7;-173,3;21,8;1471
2021-06-04 03:00:00;15,8;101460;97;0,0108;0,02;0,4;322;0,9;0,3;-0,28;1;0;0;19,2;19,9;25,5;28,6;17,9;18,3;17,7;15,7;-171,4;21,6;1502
2021-06-04 04:00:00;15,4;101470;98;0,0106;0,02;0,3;179;0,8;0,06;0,24;34;0;0;19,3;19,9;25,5;28,6;17,6;18,1;17,6;15,8;-170,6;21,4;1505
2021-06-04 05:00:00;16,4;101488;99;0,0114;0,0;0,3;316;0,6;0,14;-0,18;98;0;0;19,3;19,9;25,5;28,6;17,7;17,9;17,5;15,8;-170,4;21,3;1459
2021-06-04 06:00:00;18,9;101475;96;0,0129;0,0;0,4;259;1,0;-0,07;-0,39;283;0;0;19,3;19,9;25,5;28,6;18,2;17,9;17,5;15,8;-170,3;21,4;1398
2021-06-04 07:00:00;21,5;101470;87;0,0137;0,0;0,6;105;1,6;-0,12;0,52;480;0;0;19,4;19,9;25,5;28,6;19,2;18,0;17,4;15,8;-170,0;21,3;1541
2021-06-04 08:00:00;23,4;101457;79;0,0141;0,0;0,6;95;1,6;-0,05;0,56;603;0;0;19,4;19,9;25,4;28,6;20,6;18,3;17,4;15,8;-173,4;21,4;1376
2021-06-04 09:00:00;24,3;101440;74;0,0138;0,0;0,9;188;2,1;0,17;0,05;652;0;0;19,4;19,9;25,4;28,6;22,2;18,8;17,4;15,8;-179,4;21,4;1431
2021-06-04 10:00:00;25,4;101398;67;0,0134;0,0;1,2;77;3,0;0,26;1,18;758;7;17;19,3;19,9;25,4;28,6;23,8;19,5;17,4;15,8;-187,6;21,2;1461
2021-06-04 11:00:00;25,2;101373;64;0,0127;0,0;1,0;96;2,3;-0,14;0,94;318;1;8;19,2;19,9;25,3;28,6;24,6;20,3;17,6;15,8;-193,6;21,2;1507
2021-06-04 12:00:00;24,5;101345;70;0,0134;0,0;0,9;180;2,8;-0,86;-0,1;422;0;0;19,2;19,9;25,3;28,6;24,0;20,8;17,7;15,8;-192,4;21,3;1404
2021-06-04 13:00:00;26,9;101248;61;0,0134;0,0;0,7;104;1,9;0,06;0,42;814;0;0;19,1;19,9;25,3;28,5;24,9;21,1;17,9;15,8;-196,2;21,5;1477
2021-06-04 14:00:00;26,8;101228;57;0,0125;0,0;1,0;98;2,5;-0,12;0,96;376;2;9;19,0;19,8;25,2;28,5;25,3;21,6;18,1;15,8;-202,1;21,3;1488
2021-06-04 15:00:00;26,3;101150;56;0,0119;0,0;1,3;76;2,7;0,28;1,23;256;1;6;18,9;19,8;25,2;28,5;24,7;21,9;18,3;15,9;-202,4;21,4;1518
2021-06-04 16:00:00;24,8;101190;62;0,0121;0,0;0,8;228;2,0;-0,22;-0,42;93;11;20;18,8;19,9;25,2;28,5;24,0;22,0;18,5;15,9;-201,6;21,5;1489
2021-06-04 17:00:00;23,3;101208;70;0,0125;0,0;2,5;273;4,6;0,2;-2,5;66;100;16;18,8;19,8;25,2;28,5;23,3;21,8;18,7;15,9;-198,8;21,7;1493
2021-06-04 18:00:00;21,0;101335;76;0,0116;1,8;1,7;289;4,3;0,49;-1,52;9;132;14;18,7;19,8;25,2;28,5;22,5;21,6;18,8;15,9;-197,2;21,9;1421
2021-06-04 19:00:00;18,8;101390;88;0,0117;1,31;1,6;273;3,2;0,12;-1,6;1;4;7;18,7;19,8;25,2;28,5;21,7;21,3;18,9;16,0;-195,8;21,8;1451
2021-06-04 20:00:00;17,8;101305;94;0,0118;0,1;0,8;118;2,2;0,35;0,4;0;0;0;19,1;19,8;25,3;28,5;21,1;21,0;18,9;16,0;-193,0;22,1;1460
2021-06-04 21:00:00;17,8;101352;93;0,0117;0,0;1,3;222;2,6;0,05;-1,07;0;0;0;19,4;19,8;25,3;28,5;20,7;20,7;19,0;16,0;-191,0;22,1;1513
2021-06-04 22:00:00;17,7;101360;93;0,0116;0,0;0,4;269;1,2;-0,01;-0,29;0;0;0;19,6;19,8;25,3;28,5;20,2;20,4;18,9;16,1;-190,0;22,1;1476
2021-06-04 23:00:00;17,2;101345;94;0,0115;0,02;0,4;288;0,9;0,12;-0,37;0;0;0;19,8;19,8;25,3;28,5;19,9;20,1;18,9;16,2;-188,7;22,1;1472
2021-06-05 00:00:00;16,8;101358;94;0,0111;0,0;0,5;313;1,0;0,34;-0,32;0;0;0;19,8;19,8;25,3;28,5;19,5;19,9;18,8;16,2;-187,0;22,1;1394
2021-06-05 01:00:00;16,0;101370;95;0,0106;0,02;0,7;283;1,3;0,2;-0,68;0;0;0;19,9;19,8;25,3;28,5;19,1;19,6;18,8;16,2;-185,7;22,0;1504
2021-06-05 02:00:00;15,7;101367;96;0,0106;0,0;0,5;329;1,1;0,3;-0,31;0;0;0;20,0;19,8;25,3;28,5;18,8;19,3;18,7;16,3;-185,1;21,9;1448
2021-06-05 03:00:00;15,9;101378;95;0,0105;0,02;0,9;281;1,7;0,19;-0,91;1;0;0;20,0;19,8;25,3;28,5;18,5;19,1;18,6;16,3;-184,0;21,9;1460
2021-06-05 04:00:00;16,2;101370;96;0,0109;0,0;0,7;268;1,6;-0,01;-0,68;12;0;0;20,0;19,7;25,3;28,5;18,4;18,9;18,5;16,3;-183,2;22,0;1416
2021-06-05 05:00:00;16,4;101360;94;0,0109;0,0;1,2;270;2,3;0,03;-1,18;37;0;0;20,1;19,7;25,3;28,5;18,4;18,7;18,4;16,3;-181,6;22,1;1403
2021-06-05 06:00:00;16,8;101387;94;0,0111;0,0;0,9;260;2,1;-0,14;-0,87;86;0;0;20,1;19,7;25,3;28,5;18,5;18,6;18,3;16,4;-181,2;22,1;1445
2021-06-05 07:00:00;17,5;101402;92;0,0114;0,0;0,7;276;1,8;0,06;-0,73;138;0;0;20,1;19,7;25,3;28,5;18,7;18,6;18,2;16,4;-180,8;22,1;1425
2021-06-05 08:00:00;18,6;101402;91;0,0121;0,0;1,1;280;2,4;0,18;-1,08;278;0;0;20,1;19,7;25,3;28,5;19,3;18,6;18,2;16,4;-180,7;22,0;1432
2021-06-05 09:00:00;19,5;101408;87;0,0121;0,0;1,5;292;3,3;0,55;-1,32;232;0;0;20,1;19,7;25,3;28,5;19,9;18,8;18,1;16,4;-181,0;21,9;1418
2021-06-05 10:00:00;19,6;101430;84;0,0119;0,0;1,7;301;4,1;0,91;-1,48;218;0;0;20,1;19,7;25,3;28,4;20,2;19,0;18,1;16,4;-182,7;22,1;1458
2021-06-05 11:00:00;20,0;101408;85;0,0122;0,0;1,9;298;4,1;0,9;-1,67;449;0;0;20,1;19,8;25,3;28,4;20,7;19,2;18,1;16,4;-185,0;22,2;1490
2021-06-05 12:00:00;21,0;101375;82;0,0126;0,0;2,7;293;5,2;1,05;-2,5;538;0;0;20,0;19,7;25,3;28,4;21,9;19,5;18,1;16,4;-190,3;22,2;1460
2021-06-05 13:00:00;19,7;101410;83;0,0118;0,0;2,9;299;6,2;1,44;-2,56;305;0;0;19,9;19,8;25,2;28,4;22,1;19,9;18,1;16,4;-193,0;21,9;1504
2021-06-05 14:00:00;18,3;101465;86;0,0111;0,0;3,0;301;6,5;1,56;-2,53;194;0;0;19,9;19,8;25,2;28,4;21,6;20,2;18,2;16,4;-192,4;22,0;1448
2021-06-05 15:00:00;17,4;101482;87;0,0106;0,0;2,6;302;5,9;1,39;-2,18;98;0;0;19,8;19,8;25,2;28,4;21,1;20,2;18,3;16,4;-191,3;21,9;1478
2021-06-05 16:00:00;16,4;101520;89;0,0103;0,0;2,6;301;5,3;1,35;-2,23;33;0;0;19,8;19,8;25,2;28,4;20,3;20,0;18,4;16,4;-190,1;21,8;1424
2021-06-05 17:00:00;16,4;101543;90;0,0103;0,0;2,3;300;5,0;1,18;-1,97;41;0;0;19,8;19,8;25,2;28,4;19,8;19,8;18,4;16,4;-188,9;21,7;1443
2021-06-05 18:00:00;16,4;101568;89;0,0103;0,0;2,1;296;4,3;0,92;-1,83;21;0;0;19,8;19,8;25,3;28,4;19,4;19,6;18,4;16,4;-186,8;21,4;1424
2021-06-05 19:00:00;16,3;101582;89;0,0102;0,0;2,0;296;4,4;0,86;-1,79;4;0;0;19,7;19,8;25,3;28,4;19,0;19,3;18,4;16,4;-185,9;21,3;1460
2021-06-05 20:00:00;16,2;101642;89;0,0101;0,0;1,9;292;4,1;0,71;-1,71;0;0;0;19,7;19,7;25,3;28,4;18,6;19,1;18,4;16,4;-185,6;21,2;1496
2021-06-05 21:00:00;16,2;101680;88;0,01;0,0;1,9;297;4,2;0,86;-1,66;0;0;0;19,7;19,7;25,3;28,4;18,4;18,9;18,3;16,5;-185,0;21,1;1408
2021-06-05 22:00:00;16,1;101700;87;0,0098;0,0;2,0;300;4,1;1,0;-1,76;0;0;0;19,7;19,7;25,3;28,4;18,1;18,6;18,2;16,5;-184,4;21,0;1421
2021-06-05 23:00:00;15,8;101700;86;0,0095;0,0;1,6;301;3,7;0,81;-1,36;0;0;0;19,7;19,7;25,3;28,4;17,9;18,4;18,2;16,5;-183,3;20,9;1448
2021-06-06 00:00:00;15,5;101700;87;0,0094;0,0;1,4;307;3,6;0,86;-1,13;0;0;0;19,7;19,7;25,3;28,4;17,6;18,3;18,1;16,5;-182,1;21,0;1476
2021-06-06 01:00:00;15,3;101695;87;0,0092;0,0;1,7;307;3,5;1,02;-1,34;0;0;0;19,6;19,7;25,3;28,4;17,4;18,1;18,0;16,5;-181,6;21,0;1456
2021-06-06 02:00:00;14,8;101682;87;0,009;0,0;1,6;306;4,0;0,93;-1,26;0;0;0;19,6;19,7;25,3;28,4;17,2;17,9;17,9;16,5;-180,9;21,2;1481
2021-06-06 03:00:00;14,6;101680;88;0,0089;0,0;1,7;306;3,7;0,98;-1,36;0;0;0;19,6;19,7;25,3;28,4;17,0;17,7;17,8;16,5;-180,3;21,2;1472
2021-06-06 04:00:00;14,4;101673;88;0,0089;0,0;1,6;304;3,8;0,94;-1,35;6;0;0;19,6;19,7;25,3;28,4;16,8;17,6;17,8;16,5;-180,0;21,3;1462
2021-06-06 05:00:00;14,3;101685;89;0,0089;0,0;1,7;304;3,4;0,98;-1,44;20;0;0;19,6;19,7;25,3;28,4;16,7;17,4;17,7;16,5;-179,7;21,2;1520
2021-06-06 06:00:00;14,0;101712;92;0,0091;0,0;1,2;302;3,0;0,67;-1,04;30;0;0;19,6;19,7;25,3;28,4;16,7;17,3;17,6;16,5;-179,5;21,2;1459
2021-06-06 07:00:00;14,0;101725;94;0,0092;0,0;1,6;303;3,7;0,9;-1,36;61;0;0;19,6;19,7;25,3;28,4;16,7;17,2;17,5;16,5;-178,8;21,1;1468
2021-06-06 08:00:00;14,1;101737;94;0,0093;0,0;1,4;304;2,9;0,78;-1,15;62;0;0;19,6;19,7;25,3;28,3;16,7;17,2;17,4;16,5;-177,8;21,2;1463
2021-06-06 09:00:00;14,4;101750;94;0,0095;0,0;1,4;304;3,0;0,75;-1,12;85;0;0;19,6;19,7;25,3;28,3;16,8;17,1;17,3;16,4;-177,7;21,2;1492
2021-06-06 10:00:00;14,6;101770;94;0,0096;0,0;1,9;302;4,2;1,01;-1,58;121;0;0;19,5;19,7;25,3;28,3;16,9;17,1;17,3;16,4;-177,5;21,1;1454
2021-06-06 11:00:00;15,6;101767;91;0,0099;0,0;1,3;303;3,0;0,71;-1,09;203;0;0;19,5;19,7;25,3;28,3;17,3;17,1;17,2;16,4;-178,4;21,1;1444
2021-06-06 12:00:00;16,5;101725;87;0,01;0,0;1,5;297;3,2;0,71;-1,36;185;0;0;19,5;19,7;25,3;28,3;17,7;17,2;17,2;16,4;-179,4;20,9;1437
2021-06-06 13:00:00;16,8;101710;86;0,01;0,0;1,6;301;3,2;0,8;-1,34;136;0;0;19,5;19,7;25,3;28,3;17,8;17,4;17,1;16,4;-179,7;20,9;1424
2021-06-06 14:00:00;17,2;101718;83;0,01;0,0;1,4;300;3,5;0,7;-1,21;117;0;0;19,4;19,7;25,3;28,3;17,9;17,5;17,1;16,3;-180,3;20,8;1445
2021-06-06 15:00:00;17,0;101737;85;0,01;0,0;1,4;300;3,2;0,73;-1,22;99;0;0;19,4;19,7;25,2;28,3;17,8;17,5;17,1;16,3;-180,4;20,8;1399
2021-06-06 16:00:00;17,3;101688;84;0,0102;0,0;1,2;304;2,3;0,66;-0,98;125;0;0;19,4;19,7;25,2;28,3;18,0;17,5;17,1;16,3;-180,5;20,8;1463
2021-06-06 17:00:00;17,7;101665;82;0,0102;0,0;1,1;304;2,2;0,58;-0,86;56;0;0;19,4;19,7;25,2;28,3;18,0;17,6;17,1;16,3;-180,1;20,7;1482
2021-06-06 18:00:00;17,6;101660;82;0,0101;0,0;0,7;306;1,4;0,4;-0,56;22;0;0;19,3;19,7;25,2;28,3;17,8;17,6;17,1;16,3;-180,1;20,8;1471
2021-06-06 19:00:00;17,3;101700;85;0,0103;0,0;0,8;290;1,4;0,28;-0,77;5;0;0;19,3;19,7;25,3;28,3;17,6;17,6;17,1;16,3;-179,6;20,6;1397
2021-06-06 20:00:00;17,0;101715;86;0,0102;0,0;0,8;299;1,6;0,39;-0,68;0;0;0;19,3;19,7;25,3;28,3;17,4;17,5;17,1;16,2;-179,2;20,7;1480
2021-06-06 21:00:00;16,8;101722;87;0,0102;0,0;0,7;231;1,4;0,44;-0,5;0;0;0;19,3;19,7;25,3;28,3;17,3;17,4;17,1;16,2;-178,6;20,7;1441
2021-06-06 22:00:00;16,6;101700;88;0,0102;0,0;0,5;314;1,2;0,39;-0,39;0;0;0;19,3;19,7;25,3;28,3;17,1;17,3;17,1;16,2;-177,9;20,7;1447
2021-06-06 23:00:00;16,5;101695;88;0,0102;0,0;0,4;325;0,9;0,33;-0,26;0;0;0;19,3;19,7;25,3;28,3;17,0;17,2;17,0;16,2;-176,8;20,7;1518
2021-06-07 00:00:00;16,6;101688;88;0,0103;0,0;0,6;306;1,2;0,34;-0,48;0;0;0;19,2;19,7;25,3;28,3;16,9;17,2;17,0;16,2;-176,9;20,7;1505
2021-06-07 01:00:00;16,6;101693;89;0,0103;0,0;0,5;304;1,1;0,29;-0,41;0;0;0;19,2;19,7;25,3;28,3;16,9;17,1;17,0;16,2;-175,6;20,6;1458
2021-06-07 02:00:00;16,4;101680;90;0,0103;0,0;0,7;309;1,5;0,43;-0,52;0;0;0;19,2;19,7;25,3;28,3;16,8;17,0;17,0;16,2;-175,2;20,5;1455
2021-06-07 03:00:00;16,0;101692;91;0,0101;0,0;1,0;310;2,0;0,67;-0,81;1;0;0;19,2;19,7;25,3;28,3;16,7;17,0;16,9;16,1;-174,9;20,5;1479
2021-06-07 04:00:00;15,4;101692;92;0,0099;0,0;0,8;316;1,7;0,6;-0,57;25;0;0;19,2;19,7;25,3;28,3;16,5;16,9;16,9;16,1;-174,6;20,4;1470
2021-06-07 05:00:00;15,7;101678;94;0,0103;0,0;0,9;302;2,2;0,48;-0,76;147;0;0;19,2;19,7;25,3;28,3;16,6;16,8;16,8;16,1;-174,0;20,6;1453
2021-06-07 06:00:00;16,6;101677;91;0,0105;0,0;1,3;288;3,1;0,43;-1,27;201;0;0;19,2;19,7;25,3;28,3;16,8;16,8;16,8;16,1;-174,5;20,6;1555
2021-06-07 07:00:00;17,2;101695;87;0,0105;0,0;1,0;283;2,6;0,22;-0,93;293;0;0;19,1;19,7;25,3;28,3;17,4;16,9;16,8;16,1;-174,9;20,7;1413
2021-06-07 08:00:00;17,6;101700;82;0,0101;0,0;1,4;296;3,3;0,64;-1,26;314;0;0;19,1;19,7;25,3;28,2;18,0;17,0;16,7;16,1;-177,4;20,5;1451
2021-06-07 09:00:00;18,2;101700;81;0,0104;0,0;1,5;291;3,6;0,53;-1,37;396;0;0;19,1;19,7;25,2;28,2;18,8;17,3;16,7;16,1;-180,3;20,5;1474
2021-06-07 10:00:00;18,7;101695;77;0,0103;0,0;1,4;290;3,3;0,48;-1,32;300;0;0;19,0;19,7;25,2;28,2;19,2;17,6;16,7;16,1;-184,0;20,3;1454
2021-06-07 11:00:00;19,0;101693;75;0,0101;0,0;1,5;284;3,4;0,36;-1,4;257;0;0;18,9;19,7;25,2;28,2;19,3;17,9;16,8;16,1;-186,4;20,3;1448
2021-06-07 12:00:00;19,2;101670;74;0,0102;0,0;1,5;293;3,1;0,6;-1,39;214;0;0;18,9;19,7;25,2;28,2;19,3;18,1;16,8;16,0;-188,3;20,2;1459
2021-06-07 13:00:00;19,2;101663;74;0,0102;0,0;1,8;295;4,0;0,76;-1,59;279;0;0;18,8;19,7;25,2;28,2;19,4;18,2;16,9;16,0;-189,8;20,4;1489
2021-06-07 14:00:00;19,9;101630;69;0,0099;0,0;1,8;286;4,7;0,52;-1,75;313;0;0;18,7;19,7;25,2;28,2;19,6;18,3;17,0;16,0;-192,6;20,3;1439
2021-06-07 15:00:00;20,4;101600;67;0,0098;0,0;1,9;286;4,3;0,52;-1,81;347;0;0;18,6;19,7;25,1;28,2;19,9;18,4;17,0;16,0;-196,6;20,4;1434
2021-06-07 16:00:00;20,4;101578;64;0,0095;0,0;1,5;288;4,0;0,48;-1,45;234;0;0;18,6;19,7;25,1;28,2;20,0;18,6;17,1;16,0;-199,0;20,4;1407
2021-06-07 17:00:00;20,0;101580;65;0,0094;0,0;1,0;153;2,7;0,41;0,48;141;0;0;18,5;19,7;25,1;28,2;19,7;18,7;17,2;16,0;-198,9;20,4;1500
2021-06-07 18:00:00;19,6;101602;66;0,0093;0,0;0,9;173;2,3;0,24;-0,01;82;0;0;18,5;19,7;25,1;28,2;19,4;18,7;17,3;16,0;-197,6;20,4;1425
2021-06-07 19:00:00;18,8;101610;68;0,009;0,0;1,0;68;2,5;0,38;0,96;16;0;0;18,4;19,7;25,1;28,2;19,0;18,6;17,3;16,0;-196,2;20,6;1503
2021-06-07 20:00:00;18,1;101650;72;0,0092;0,0;0,6;40;1,4;0,46;0,41;0;0;0;18,4;19,7;25,1;28,2;18,6;18,5;17,3;16,0;-194,6;20,3;1514
2021-06-07 21:00:00;17,6;101682;74;0,0092;0,0;0,5;310;1,1;0,28;-0,35;0;0;0;18,4;19,7;25,1;28,1;18,1;18,3;17,4;16,0;-191,9;20,3;1518
2021-06-07 22:00:00;17,1;101675;78;0,0093;0,0;0,5;314;1,0;0,35;-0,36;0;0;0;18,4;19,7;25,2;28,1;17,8;18,1;17,4;16,0;-190,7;20,3;1459
2021-06-07 23:00:00;15,5;101667;86;0,0093;0,0;0,3;312;0,7;0,2;-0,21;0;0;0;18,3;19,7;25,2;28,1;17,4;17,9;17,4;16,0;-189,7;20,2;1563
2021-06-08 00:00:00;15,3;101660;86;0,0092;0,0;0,5;324;0,8;0,37;-0,27;0;0;0;18,3;19,7;25,2;28,1;17,1;17,7;17,3;16,1;-188,3;20,2;1430
2021-06-08 01:00:00;14,6;101648;90;0,0091;0,0;0,5;313;0,8;0,34;-0,36;0;0;0;18,3;19,7;25,2;28,1;16,8;17,5;17,3;16,1;-187,2;20,2;1489
2021-06-08 02:00:00;15,2;101652;89;0,0095;0,0;0,5;318;0,8;0,37;-0,33;0;0;0;18,3;19,7;25,2;28,1;16,7;17,3;17,2;16,1;-185,9;20,2;1413
2021-06-08 03:00:00;15,7;101670;89;0,0097;0,0;0,7;306;1,3;0,4;-0,54;3;0;0;18,3;19,7;25,2;28,1;16,6;17,2;17,2;16,1;-185,0;20,0;1471
2021-06-08 04:00:00;15,5;101683;91;0,0099;0,0;0,6;298;1,0;0,29;-0,53;35;0;0;18,2;19,7;25,2;28,1;16,6;17,1;17,1;16,1;-184,4;20,0;1514
2021-06-08 05:00:00;16,2;101685;91;0,0103;0,0;0,5;289;1,0;0,18;-0,44;100;0;0;18,2;19,7;25,2;28,1;16,7;17,0;17,0;16,1;-183,6;19,9;1435
2021-06-08 06:00:00;17,2;101682;88;0,0106;0,0;1,1;300;2,3;0,54;-0,92;216;0;0;18,2;19,7;25,2;28,1;17,1;17,0;17,0;16,1;-183,6;19,9;1443